THOR ABLESTAR DEB, 138

Orbit data source: Space-Track

THOR ABLESTAR DEB, 138 is space debris in LEO originally from a launch on Thu, 29 Jun 1961 UTC launched from the Air Force Eastern Test Range (AFETR). Debris objects in space refer to the collection of defunct objects orbiting the Earth. Examples of debris include non-operational satellites, rocket bodies, and fragments generated from explosions, collisions, or faulty payload assembly.

Loading next visibility...
Identifier
138, 1961-015Y
Orbit
LEO
Country
Flag of USUS
Related business
Manufacturer
Unknown
Mission
Spacecraft
Bus & Motor
Unknown
Mass
Unknown
Launch date (UTC)
1961-06-29 (64 years ago)
Launch vehicle
Unknown
Launch site
Air Force Eastern Test Range (AFETR)
Object type
Payload
Rocket body
Debris
Shape & HBR
Unknown shape, 0.3 m
Radar Cross Section
Small (<0.1 m²)

Expand to show TLE details & history
Last TLE update: 6 hours ago

TLE from 6 hours ago
0 THOR ABLESTAR DEB
1   138U 61015Y   25311.11861241  .00000811  00000-0  55344-3 0  9995
2   138  67.1540 288.5905 0035917 288.8966  70.8230 14.04442115271642
Epoch: 2025-11-07T02:50Z
TLE epoch observation values (Epoch: 2025-11-07T02:50:48.112Z)
Latitude
-0.00001°
Longitude
-160.67713°
Altitude
872.091 km
Speed
7.421 km/s
True Right ascension
19h 14m 21s
True Declination
0° 00' 00"
Sunlit
Object was in daylight at epoch
Visualization orbit readout
Latitude
Unknown
Longitude
Unknown
Altitude
Unknown
Speed
Unknown
Apparent Right ascension
Unknown
Apparent Declination
Unknown
Sunlit
N/A
Visualization observer readout
Local Sidereal Time
05:19:29
Azimuth
Unknown
Elevation
Unknown
Doppler factor
Unknown
Orbital elements
Apogee altitude
902.853 km
Perigee altitude
850.738 km
Semi-major axis
7,254.933 km
Eccentricity
0.00359
Inclination
67.154°
RAAN
288.5905°
Arg. of periapsis
288.8966°
True anomaly
71.21231°
Mean anomaly
70.823°
Eccentric anomaly
71.0176°
Mean motion
3.51231 °/min
Orbital period
102.5 mins
BSTAR
0.00055344
Loading maneuver chart data...
Computing Atmospheric mass density...

Documentation

Showing up to 5 results
|